TimePDT,TemperatureF,Dew PointF,Humidity,Sea Level PressureIn,VisibilityMPH,Wind Direction,Wind SpeedMPH,Gust SpeedMPH,PrecipitationIn,Events,Conditions,WindDirDegrees,DateUTC
12:53 AM,57.0,48.0,72,30.02,10.0,Calm,Calm,-,N/A,,Clear,0,2013-04-28 07:53:00
1:53 AM,55.9,48.9,77,30.01,10.0,Calm,Calm,-,N/A,,Clear,0,2013-04-28 08:53:00
2:53 AM,55.9,48.9,77,30.01,10.0,Calm,Calm,-,N/A,,Clear,0,2013-04-28 09:53:00
3:53 AM,55.0,48.0,77,30.00,10.0,Calm,Calm,-,N/A,,Clear,0,2013-04-28 10:53:00
4:53 AM,54.0,48.0,80,29.99,10.0,Calm,Calm,-,N/A,,Clear,0,2013-04-28 11:53:00
5:53 AM,53.6,46.4,77,30.00,10.0,Calm,Calm,-,N/A,,Clear,0,2013-04-28 12:53:00
6:53 AM,53.1,48.0,83,30.01,10.0,Calm,Calm,-,N/A,,Clear,0,2013-04-28 13:53:00
7:53 AM,57.0,48.0,72,30.02,10.0,Calm,Calm,-,N/A,,Clear,0,2013-04-28 14:53:00
8:53 AM,62.1,48.9,62,30.04,10.0,Calm,Calm,-,N/A,,Clear,0,2013-04-28 15:53:00
9:53 AM,69.1,50.0,51,30.03,10.0,Calm,Calm,-,N/A,,Clear,0,2013-04-28 16:53:00
10:53 AM,73.9,50.0,43,30.02,10.0,Calm,Calm,-,N/A,,Clear,0,2013-04-28 17:53:00
11:53 AM,81.0,48.9,33,30.01,10.0,NNW,5.8,-,N/A,,Clear,340,2013-04-28 18:53:00
12:53 PM,84.9,48.9,29,29.99,10.0,NNW,5.8,-,N/A,,Clear,330,2013-04-28 19:53:00
1:53 PM,88.0,45.0,22,29.96,10.0,NW,11.5,16.1,N/A,,Clear,320,2013-04-28 20:53:00
2:53 PM,91.0,45.0,20,29.92,10.0,NNW,9.2,-,N/A,,Clear,330,2013-04-28 21:53:00
3:53 PM,91.0,44.1,20,29.89,10.0,WNW,5.8,-,N/A,,Clear,290,2013-04-28 22:53:00
4:53 PM,91.0,44.1,20,29.88,10.0,NW,8.1,-,N/A,,Clear,320,2013-04-28 23:53:00
5:53 PM,90.0,37.9,16,29.86,10.0,NW,8.1,-,N/A,,Clear,310,2013-04-29 00:53:00
6:53 PM,87.1,39.9,19,29.85,10.0,NNW,5.8,-,N/A,,Clear,340,2013-04-29 01:53:00
7:53 PM,75.9,48.9,38,29.84,10.0,Calm,Calm,-,N/A,,Clear,0,2013-04-29 02:53:00
8:53 PM,75.0,54.0,48,29.85,10.0,SSW,3.5,-,N/A,,Clear,210,2013-04-29 03:53:00
9:53 PM,70.0,55.9,61,29.86,10.0,Calm,Calm,-,N/A,,Clear,0,2013-04-29 04:53:00
10:53 PM,66.0,55.0,68,29.85,10.0,SW,4.6,-,N/A,,Clear,220,2013-04-29 05:53:00
11:53 PM,63.0,54.0,72,29.85,10.0,Calm,Calm,-,N/A,,Clear,0,2013-04-29 06:53:00